FW1988 Weather Reports


Display with metric or nautical units.
time (UTC)temp
F
wind
direction
speed
MPH
gust
MPH
rain 1hr
in
rain 24hr
in
rain mn
in
humidity
%
barometer
mb
20191021034233 61 0.0 0.0 0.00 0.00 0.00 31
20191021033724 64 0.0 0.0 0.00 0.00 0.00 30
20191021032205 61 0.0 0.0 0.00 0.00 0.00 31
20191021031705 60 0.0 0.0 0.00 0.00 0.00 32
20191021031204 60 0.0 0.0 0.00 0.00 0.00 32
20191021030706 60 0.0 0.0 0.00 0.00 0.00 32
20191021025644 58 0.0 0.0 0.00 0.00 0.00 33
20191021025144 58 0.0 0.0 0.00 0.00 0.00 33
20191021023635 57 0.0 0.0 0.00 0.00 0.00 33
20191021023116 58 0.0 0.0 0.00 0.00 0.00 33
20191021022617 58 0.0 0.0 0.00 0.00 0.00 33
20191021021100 59 0.0 0.0 0.00 0.00 0.00 32
20191021020547 58 0.0 0.0 0.00 0.00 0.00 32
20191021015546 59 0.0 0.0 0.00 0.00 0.00 35
20191021015101 58 0.0 0.0 0.00 0.00 0.00 38
20191021014547 58 0.0 0.0 0.00 0.00 0.00 40
20191021014058 58 0.0 0.0 0.00 0.00 0.00 42
20191021013104 59 0.0 0.0 0.00 0.00 0.00 42
20191021012547 59 0.0 0.0 0.00 0.00 0.00 42
20191021012057 59 0.0 0.0 0.00 0.00 0.00 42
20191021011056 59 0.0 0.0 0.00 0.00 0.00 41
20191021010537 59 0.0 0.0 0.00 0.00 0.00 41
20191021004058 60 0.0 0.0 0.00 0.00 0.00 40
20191021001509 60 0.0 0.0 0.00 0.00 0.00 39
20191021000450 60 0.0 0.0 0.00 0.00 0.00 39
20191020235439 61 0.0 0.0 0.00 0.00 0.00 39
20191020233406 61 0.0 0.0 0.00 0.00 0.00 40
20191020232839 61 0.0 0.0 0.00 0.00 0.00 40
20191020232309 61 0.0 0.0 0.00 0.00 0.00 40
20191020231800 61 0.0 0.0 0.00 0.00 0.00 40
20191020231242 61 0.0 0.0 0.00 0.00 0.00 40
20191020230740 62 0.0 0.0 0.00 0.00 0.00 40
20191020230241 61 0.0 0.0 0.00 0.00 0.00 40
20191020225730 61 0.0 0.0 0.00 0.00 0.00 40
20191020224711 60 0.0 0.0 0.00 0.00 0.00 38
20191020224210 61 0.0 0.0 0.00 0.00 0.00 39
20191020222700 62 0.0 0.0 0.00 0.00 0.00 37
20191020221701 62 0.0 0.0 0.00 0.00 0.00 37
20191020221143 62 0.0 0.0 0.00 0.00 0.00 37
20191020220641 62 0.0 0.0 0.00 0.00 0.00 37
20191020220141 62 0.0 0.0 0.00 0.00 0.00 37
20191020215642 62 0.0 0.0 0.00 0.00 0.00 37
20191020215145 63 0.0 0.0 0.00 0.00 0.00 37
20191020214132 62 0.0 0.0 0.00 0.00 0.00 36
20191020210612 64 0.0 0.0 0.00 0.00 0.00 35
20191020205113 65 0.0 0.0 0.00 0.00 0.00 35
20191020204613 65 0.0 0.0 0.00 0.00 0.00 36
20191020204103 65 0.0 0.0 0.00 0.00 0.00 36
20191020202607 65 0.0 0.0 0.00 0.00 0.00 35
20191020201100 65 0.0 0.0 0.00 0.00 0.00 35
20191020200113 65 0.0 0.0 0.00 0.00 0.00 35
20191020195534 66 0.0 0.0 0.00 0.00 0.00 35
20191020194535 65 0.0 0.0 0.00 0.00 0.00 34
20191020194052 65 0.0 0.0 0.00 0.00 0.00 34
20191020193516 65 0.0 0.0 0.00 0.00 0.00 33
20191020192006 66 0.0 0.0 0.00 0.00 0.00 33
20191020190955 65 0.0 0.0 0.00 0.00 0.00 32
20191020190458 67 0.0 0.0 0.00 0.00 0.00 32
20191020185956 66 0.0 0.0 0.00 0.00 0.00 31
20191020184959 66 0.0 0.0 0.00 0.00 0.00 30
20191020184456 67 0.0 0.0 0.00 0.00 0.00 30
20191020183456 67 0.0 0.0 0.00 0.00 0.00 30
20191020182848 67 0.0 0.0 0.00 0.00 0.00 30
20191020182338 67 0.0 0.0 0.00 0.00 0.00 30
20191020181838 67 0.0 0.0 0.00 0.00 0.00 30
20191020181326 67 0.0 0.0 0.00 0.00 0.00 30
20191020180318 67 0.0 0.0 0.00 0.00 0.00 29
20191020175817 68 0.0 0.0 0.00 0.00 0.00 29
20191020175319 68 0.0 0.0 0.00 0.00 0.00 29
20191020174309 68 0.0 0.0 0.00 0.00 0.00 28
20191020173808 68 0.0 0.0 0.00 0.00 0.00 28
20191020172759 68 0.0 0.0 0.00 0.00 0.00 27
20191020172258 69 0.0 0.0 0.00 0.00 0.00 26
20191020165739 70 0.0 0.0 0.00 0.00 0.00 26
20191020164649 70 0.0 0.0 0.00 0.00 0.00 26
20191020164149 70 0.0 0.0 0.00 0.00 0.00 26
20191020163649 69 0.0 0.0 0.00 0.00 0.00 26
20191020162652 69 0.0 0.0 0.00 0.00 0.00 27
20191020162151 69 0.0 0.0 0.00 0.00 0.00 27
20191020160128 70 0.0 0.0 0.00 0.00 0.00 27
20191020155610 71 0.0 0.0 0.00 0.00 0.00 26
20191020155110 71 0.0 0.0 0.00 0.00 0.00 26
20191020154610 71 0.0 0.0 0.00 0.00 0.00 26
20191020151542 69 0.0 0.0 0.00 0.00 0.00 26
20191020150541 71 0.0 0.0 0.00 0.00 0.00 26
20191020150111 72 0.0 0.0 0.00 0.00 0.00 26
20191020144521 72 0.0 0.0 0.00 0.00 0.00 25
20191020143523 73 0.0 0.0 0.00 0.00 0.00 25
20191020143059 73 0.0 0.0 0.00 0.00 0.00 25
20191020142512 73 0.0 0.0 0.00 0.00 0.00 25
20191020141502 74 0.0 0.0 0.00 0.00 0.00 25
20191020141003 73 0.0 0.0 0.00 0.00 0.00 25
20191020140455 74 0.0 0.0 0.00 0.00 0.00 25
20191020135423 74 0.0 0.0 0.00 0.00 0.00 23
20191020134422 74 0.0 0.0 0.00 0.00 0.00 23
20191020133412 74 0.0 0.0 0.00 0.00 0.00 24
20191020132407 75 0.0 0.0 0.00 0.00 0.00 24
20191020131906 75 0.0 0.0 0.00 0.00 0.00 24
20191020131404 75 0.0 0.0 0.00 0.00 0.00 24
20191020125907 76 0.0 0.0 0.00 0.00 0.00 23
20191020124324 77 0.0 0.0 0.00 0.00 0.00 22
20191020120205 78 0.0 0.0 0.00 0.00 0.00 21
20191020115155 80 0.0 0.0 0.00 0.00 0.00 21
20191020113148 79 0.0 0.0 0.00 0.00 0.00 21
20191020111626 78 0.0 0.0 0.00 0.00 0.00 22
20191020105051 81 0.0 0.0 0.00 0.00 0.00 21
20191020104527 80 0.0 0.0 0.00 0.00 0.00 22
20191020101918 82 0.0 0.0 0.00 0.00 0.00 22
20191020101417 79 0.0 0.0 0.00 0.00 0.00 24
20191020100417 77 0.0 0.0 0.00 0.00 0.00 24
20191020094849 77 0.0 0.0 0.00 0.00 0.00 26
20191020093828 75 0.0 0.0 0.00 0.00 0.00 29
20191020093322 74 0.0 0.0 0.00 0.00 0.00 31
20191020092323 78 0.0 0.0 0.00 0.00 0.00 22
20191020091820 79 0.0 0.0 0.00 0.00 0.00 22
20191020091320 79 0.0 0.0 0.00 0.00 0.00 21
20191020085759 82 0.0 0.0 0.00 0.00 0.00 21
20191020084231 82 0.0 0.0 0.00 0.00 0.00 21
20191020083731 82 0.0 0.0 0.00 0.00 0.00 21
20191020083222 83 0.0 0.0 0.00 0.00 0.00 20
20191020081721 86 0.0 0.0 0.00 0.00 0.00 20
20191020081221 87 0.0 0.0 0.00 0.00 0.00 20
20191020075710 89 0.0 0.0 0.00 0.00 0.00 19
20191020074650 90 0.0 0.0 0.00 0.00 0.00 19
20191020074142 91 0.0 0.0 0.00 0.00 0.00 19
20191020073132 87 0.0 0.0 0.00 0.00 0.00 19
20191020072631 88 0.0 0.0 0.00 0.00 0.00 19
20191020072111 90 0.0 0.0 0.00 0.00 0.00 19
20191020071612 89 0.0 0.0 0.00 0.00 0.00 19
20191020071112 89 0.0 0.0 0.00 0.00 0.00 19
20191020065602 92 0.0 0.0 0.00 0.00 0.00 19
20191020065103 89 0.0 0.0 0.00 0.00 0.00 19
20191020064103 80 0.0 0.0 0.00 0.00 0.00 21
20191020063108 82 0.0 0.0 0.00 0.00 0.00 22
20191020062555 80 0.0 0.0 0.00 0.00 0.00 22
20191020061100 80 0.0 0.0 0.00 0.00 0.00 23
20191020055049 77 0.0 0.0 0.00 0.00 0.00 24
20191020053953 78 0.0 0.0 0.00 0.00 0.00 23
20191020052955 82 0.0 0.0 0.00 0.00 0.00 22
20191020052444 83 0.0 0.0 0.00 0.00 0.00 22
20191020051944 83 0.0 0.0 0.00 0.00 0.00 22
20191020045425 68 0.0 0.0 0.00 0.00 0.00 27
20191020044916 67 0.0 0.0 0.00 0.00 0.00 27
20191020043905 67 0.0 0.0 0.00 0.00 0.00 27
20191020043346 68 0.0 0.0 0.00 0.00 0.00 26
20191020042846 69 0.0 0.0 0.00 0.00 0.00 26
20191020041845 68 0.0 0.0 0.00 0.00 0.00 26
20191020041349 68 0.0 0.0 0.00 0.00 0.00 26
20191020040836 65 0.0 0.0 0.00 0.00 0.00 27
20191020040339 65 0.0 0.0 0.00 0.00 0.00 27
20191020035327 64 0.0 0.0 0.00 0.00 0.00 27
20191020034826 64 0.0 0.0 0.00 0.00 0.00 27